Regional Weather Roundup
Issued by NWS Goodland, KS

Home | Current Version | Previous Version | Text Only | Print | Product List | Glossary Off
Versions: 1 2 3 4 5 6 7 8 9 10 11 12 13 14 15 16 17 18 19 20 21 22 23 24 25 26 27 28 29 30 31 32 33 34 35 36 37 38 39 40 41 42 43 44 45 46 47 48 49 50

000
ASUS43 KGLD 222308
RWRGLD

GOODLAND FORECAST AREA HOURLY WEATHER ROUNDUP
NATIONAL WEATHER SERVICE GOODLAND KS
400 PM MST SAT NOV 22 2014

...OFFICIAL OBSERVATIONS...

CITY           SKY/WX    TMP DP  RH WIND       PRES   REMARKS
GOODLAND KS    PTCLDY    62  16  16 SW14      29.56R
HILL CITY KS   CLEAR     63  29  27 S8        29.57F
IMPERIAL NEB   MOCLDY    58  13  17 N3        29.52F
MCCOOK NEB     CLEAR     64  23  21 S12       29.51F
AKRON CO       MOCLDY    59  10  14 SE3       29.55F
BURLINGTON CO  PTCLDY    58  16  19 SW13      29.57S
LIMON CO       CLOUDY    54  11  18 CALM      29.58F
$$

...UNOFFICIAL OBSERVATIONS...

CITY           SKY/WX    TMP DP  RH WIND       PRES   REMARKS
COLBY KS       CLEAR     63  25  23 S8        29.56F
GOVE KS          N/A     62  32  32 MISG        N/A
NORTON KS      CLEAR     59  25  27 SE9       29.54F
SHARON SPRINGS   N/A     62  24  23 S10         N/A
TRIBUNE KS     CLEAR     61  37  41 SE10      29.59F
TRENTON NEB      N/A     62  32  32 S7          N/A
YUMA CO          N/A     59  10  14 CALM        N/A
$$



USA.gov is the U.S. government's official web portal to all federal, state and local government web resources and services.